Regional Weather Roundup
Issued by NWS

Home | Current Version | Previous Version | Text Only | Print | Product List | Glossary Off
Versions: 1 2 3 4 5 6 7 8 9 10 11 12 13 14 15 16 17 18 19 20 21 22 23 24 25 26 27 28 29 30 31 32 33 34 35 36 37 38 39 40 41 42 43 44 45 46 47 48 49 50

000
ASUS43 KLMK 171710
RWRKY
KENTUCKY REGIONAL WEATHER ROUNDUP
NATIONAL WEATHER SERVICE LOUISVILLE KY
1200 PM EST FRI NOV 17 2017

NOTE "FAIR" INDICATES FEW OR NO CLOUDS BELOW 12,000 FEET
WITH NO SIGNIFICANT WEATHER AND/OR OBSTRUCTIONS TO VISIBILITY.

KYZ001>023-026-027-061>063-070>075-171800-
WESTERN AND SOUTH CENTRAL KENTUCKY

CITY           SKY/WX    TMP DP  RH WIND       PRES   REMARKS
PADUCAH        CLOUDY    53  41  63 SE8       30.06F
HENDERSON      CLOUDY    39  37  92 SE9       30.13F FOG     WCI  33
OWENSBORO      CLOUDY    41  38  89 S7        30.15F FOG
HOPKINSVILLE   SUNNY     49  39  67 SE6       30.11F
BOWLING GREEN  CLOUDY    46  41  82 E6        30.15F
GLASGOW        CLOUDY    44  38  79 E5        30.16F
$$

KYZ024-025-028>034-038-045-046-053-171800-
NORTH CENTRAL KENTUCKY

CITY           SKY/WX    TMP DP  RH WIND       PRES   REMARKS
LOUISVILLE/SDF PTSUNNY   43  33  68 SE8       30.16F
LOUISVILLE/LOU CLOUDY    43  35  73 S7        30.17F
FORT KNOX      CLOUDY    41  32  70 E8        30.13F
$$

KYZ035>037-039>044-047>052-055>060-089>105-171800-
NORTHEAST KENTUCKY

CITY           SKY/WX    TMP DP  RH WIND       PRES   REMARKS
LEXINGTON      SUNNY     45  32  60 VRB5      30.18F
COVINGTON      MOSUNNY   43  33  68 SE10      30.16F
FRANKFORT      SUNNY     45  32  60 VRB7      30.16F
$$

KYZ054-064>069-076>088-106>120-171800-
SOUTHEAST KENTUCKY

CITY           SKY/WX    TMP DP  RH WIND       PRES   REMARKS
JACKSON        SUNNY     46  30  53 CALM      30.19F
LONDON         SUNNY     48  35  60 CALM      30.18F
SOMERSET       SUNNY     45  34  65 CALM      30.19F
MIDDLESBORO    SUNNY     54  37  53 E3        30.18F
MONTICELLO     SUNNY     46  39  76 NW8       30.19F
$$




USA.gov is the U.S. government's official web portal to all federal, state and local government web resources and services.